Location: Terra Rouge Observatory
(46.0000°N, 62.7500°W)
Time: 00:46:21
(UTC-03:00)

Amateur Radio Satellites - All Passes

Search period start: 28 June 2016 00:16
Search period end: 29 June 2016 00:16
Location: Terra Rouge Observatory, 46.0000°N, 62.7500°W

Satellite Date Start Highest point End Downlink Frequencies (MHz)
Time Altitude Azimuth
ESTCUBE 1 28 Jun 00:17:41 00:21:59 42° 262° (W) 00:26:19 437.505/2401.250
TISAT 1 28 Jun 00:23:41 00:26:39 19° 63° (ENE) 00:29:39 437.305
JAS-2 28 Jun 00:23:59 00:25:36 11° 83° (E) 00:27:12 435.910
AISAT 28 Jun 00:25:41 00:29:57 49° 260° (W) 00:34:14 437.250
Cosmos 2491 28 Jun 00:25:50 00:33:32 36° 84° (E) 00:41:13 435.465 / 435.565
UKube-1 28 Jun 00:30:46 00:35:03 70° 257° (WSW) 00:39:23 .
SPROUT 28 Jun 00:34:07 00:38:22 86° 75° (ENE) 00:42:39 437.525
RS-15 28 Jun 00:38:18 00:43:15 13° 268° (W) 00:48:12 29.354- 29.394
TIGRISAT 28 Jun 00:42:12 00:46:09 28° 294° (WNW) 00:50:08 435.000
50 SAT 28 Jun 00:44:34 00:47:41 25° 265° (W) 00:50:49 437.505
UNISAT 6 28 Jun 00:47:11 00:50:55 25° 295° (WNW) 00:54:41 437.425
DX 1 28 Jun 00:49:19 00:53:21 36° 262° (W) 00:57:23 434.975-435.025
BEESAT 28 Jun 00:52:05 00:52:29 10° 54° (NE) 00:52:53 436.000
ITUPSAT 1 28 Jun 00:52:32 00:52:55 10° 54° (NE) 00:53:18 437.325
Cosmos 2504 28 Jun 00:56:17 01:04:41 43° 70° (ENE) 01:12:46 435.465 / 435.565
BUGSAT 1 28 Jun 00:56:35 01:00:24 37° 98° (E) 01:04:15 437.445
SO-50 28 Jun 01:02:18 01:07:02 77° 53° (NE) 01:11:35 436.795
YUBILEINY 28 Jun 01:09:20 01:18:04 68° 267° (W) 01:26:48 435.215
NANOSAT C BR1 28 Jun 01:11:05 01:15:17 65° 287° (WNW) 01:19:29 145.865
QB50P1 28 Jun 01:13:34 01:17:45 58° 287° (WNW) 01:21:56 145.935-145.965
POPSAT HIP 1 28 Jun 01:16:43 01:20:53 55° 288° (WNW) 01:25:03 437.405
CUBEBUG 1 28 Jun 01:17:42 01:20:17 15° 269° (W) 01:22:54 437.445
VELOX 1 28 Jun 01:23:29 01:26:00 15° 270° (W) 01:28:32 145.980
ANTELSAT 28 Jun 01:28:49 01:30:22 12° 303° (WNW) 01:31:55 437.575/2403.000
AO-85 28 Jun 01:28:54 01:31:07 13° 338° (NNW) 01:33:16 145.980
QB50P2 28 Jun 01:28:58 01:32:56 38° 291° (WNW) 01:36:54 145.880/145.840
POLYITAN 1 28 Jun 01:31:36 01:35:34 38° 290° (WNW) 01:39:31 437.675
DUCHIFAT 1 28 Jun 01:32:17 01:36:16 41° 290° (WNW) 01:40:16 145.980
Oscar 19 28 Jun 01:37:21 01:40:57 19° 91° (E) 01:44:32 437.125/150
Gurwin Techsat 1B 28 Jun 01:49:19 01:50:28 11° 86° (E) 01:51:37 435.225
TISAT 1 28 Jun 01:58:03 02:02:01 44° 261° (W) 02:06:02 437.305
SWISSCUBE 28 Jun 01:59:29 02:04:01 44° 69° (ENE) 02:08:34 437.505
JAS-2 28 Jun 02:06:02 02:11:52 84° 104° (ESE) 02:17:09 435.910
Cosmos 2491 28 Jun 02:21:27 02:30:01 56° 285° (WNW) 02:38:36 435.465 / 435.565
BEESAT 28 Jun 02:24:37 02:29:22 68° 73° (ENE) 02:34:09 436.000
ITUPSAT 1 28 Jun 02:25:05 02:29:50 68° 73° (ENE) 02:34:39 437.325
BUGSAT 1 28 Jun 02:32:28 02:35:35 21° 295° (WNW) 02:38:42 437.445
SO-50 28 Jun 02:44:20 02:46:52 15° 251° (WSW) 02:49:21 436.795
Cosmos 2504 28 Jun 02:49:46 02:58:14 51° 272° (W) 03:06:24 435.465 / 435.565
PCSat 28 Jun 03:01:50 03:07:12 68° 118° (ESE) 03:12:37 145.827
O/OREOS (USA 219) 28 Jun 03:07:03 03:11:13 38° 107° (ESE) 03:15:23 437.305
YUBILEINY 28 Jun 03:09:06 03:13:05 14° 289° (WNW) 03:17:05 435.215
MOZHAYETS 4 28 Jun 03:11:59 03:15:44 25° 65° (ENE) 03:19:28
Oscar 19 28 Jun 03:15:38 03:20:41 60° 289° (WNW) 03:25:43 437.125/150
Gurwin Techsat 1B 28 Jun 03:25:55 03:31:17 78° 104° (ESE) 03:36:36 435.225
KKS-1 28 Jun 03:27:04 03:31:08 37° 68° (ENE) 03:35:12 437.445
BEESAT 3 28 Jun 03:29:32 03:33:24 64° 123° (ESE) 03:37:20 437.485
ITAMSAT 1 28 Jun 03:36:25 03:41:15 37° 97° (E) 03:46:03 435.822/435.867
SWISSCUBE 28 Jun 03:38:09 03:41:59 24° 266° (W) 03:45:51 437.505
JAS-2 28 Jun 03:52:35 03:56:05 17° 306° (NW) 03:59:23 435.910
STARS 28 Jun 04:01:15 04:05:21 42° 69° (ENE) 04:09:29 437.465
BEESAT 28 Jun 04:04:53 04:07:38 15° 270° (W) 04:10:24 436.000
ITUPSAT 1 28 Jun 04:05:20 04:08:10 15° 270° (W) 04:11:00 437.325
BEESAT 2 28 Jun 04:05:46 04:09:44 85° 125° (SE) 04:13:45 435.950
Cosmos 2491 28 Jun 04:25:35 04:29:15 13° 311° (NW) 04:32:56 435.465 / 435.565
AIST 1 28 Jun 04:28:58 04:33:10 53° 78° (ENE) 04:37:19
CUBESAT XI-V 28 Jun 04:37:34 04:41:17 24° 64° (ENE) 04:44:59 437.345
AO-7 28 Jun 04:42:44 04:50:55 53° 102° (ESE) 04:59:02 29.400- 29.500
AIST 2 28 Jun 04:43:54 04:45:56 13° 110° (ESE) 04:47:59 435.215
PCSat 28 Jun 04:46:36 04:51:05 25° 319° (NW) 04:55:36 145.827
O/OREOS (USA 219) 28 Jun 04:46:57 04:50:44 26° 306° (NW) 04:54:31 437.305
MOZHAYETS 4 28 Jun 04:48:19 04:52:41 41° 263° (W) 04:57:05
AO-85 28 Jun 04:53:43 04:56:36 16° 28° (NNE) 04:59:20 145.980
KKS-1 28 Jun 05:04:12 05:07:48 24° 266° (W) 05:11:25 437.445
Gurwin Techsat 1B 28 Jun 05:07:11 05:10:36 18° 302° (WNW) 05:14:01 435.225
BEESAT 3 28 Jun 05:08:37 05:11:29 19° 322° (NW) 05:14:21 437.485
GONETS M04 28 Jun 05:10:17 05:18:18 39° 69° (ENE) 05:26:18
ITAMSAT 1 28 Jun 05:16:00 05:20:39 33° 295° (WNW) 05:25:16 435.822/435.867
Cosmos 2499 28 Jun 05:34:53 05:42:59 38° 67° (ENE) 05:50:40 435.465 / 435.565
STARS 28 Jun 05:38:39 05:41:54 20° 267° (W) 05:45:11 437.465
STRAND 1 28 Jun 05:43:53 05:45:27 11° 54° (NE) 05:47:01 437.568
BEESAT 2 28 Jun 05:45:35 05:48:07 16° 325° (NW) 05:50:41 435.950
AIST 1 28 Jun 06:07:58 06:10:17 14° 276° (W) 06:12:35
CUTE-I 28 Jun 06:13:04 06:15:47 14° 88° (E) 06:18:29 437.470
CUBESAT XI-V 28 Jun 06:13:55 06:18:24 44° 262° (W) 06:22:55 437.345
HORYU 2 28 Jun 06:16:57 06:21:28 87° 100° (E) 06:25:59 437.375
LilacSat-2 28 Jun 06:17:05 06:17:21 10° 88° (E) 06:17:35 437.200
AIST 2 28 Jun 06:19:46 06:23:52 71° 308° (NW) 06:28:02 435.215
BRITE-PL 28 Jun 06:21:56 06:24:48 18° 92° (E) 06:27:39 437.365/2234.400
AO-85 28 Jun 06:33:25 06:38:03 66° 51° (NE) 06:42:15 145.980
AO-7 28 Jun 06:35:50 06:43:30 42° 302° (WNW) 06:51:09 29.400- 29.500
NOAA 15 28 Jun 06:42:02 06:46:45 33° 96° (E) 06:51:27 137.62
GOMX 1 28 Jun 06:58:33 07:01:41 20° 93° (E) 07:04:53 467.674
NOAA 18 28 Jun 07:05:57 07:11:14 42° 99° (E) 07:16:29 137.9125
GONETS M04 28 Jun 07:07:03 07:15:25 53° 270° (W) 07:23:48
Cubesat XI-IV 28 Jun 07:16:36 07:21:51 49° 100° (E) 07:27:02 437.490
STRAND 1 28 Jun 07:18:35 07:23:41 69° 73° (ENE) 07:28:50 437.568
CUSAT 1 28 Jun 07:21:17 07:28:15 38° 92° (E) 07:34:13 437.405
Cosmos 2499 28 Jun 07:27:57 07:36:30 56° 270° (W) 07:44:35 435.465 / 435.565
DANDE 28 Jun 07:38:04 07:45:00 30° 86° (E) 07:51:29 436.750
LilacSat-2 28 Jun 07:48:14 07:52:06 71° 285° (WNW) 07:55:58 437.200
CUTE-I 28 Jun 07:51:06 07:56:32 86° 287° (WNW) 08:01:55 437.470
HORYU 2 28 Jun 07:55:27 07:57:22 13° 302° (WNW) 07:59:17 437.375
PRISM 28 Jun 07:56:48 08:00:14 26° 66° (ENE) 08:03:41 437.425
BRITE-PL 28 Jun 07:59:37 08:03:33 42° 290° (WNW) 08:07:29 437.365/2234.400
AIST 2 28 Jun 08:00:52 08:03:07 14° 328° (NNW) 08:05:22 435.215
DOVE 4 28 Jun 08:01:08 08:05:14 42° 99° (E) 08:09:30 437.250
AO-85 28 Jun 08:15:15 08:17:52 16° 251° (WSW) 08:20:22 145.980
NOAA 15 28 Jun 08:21:46 08:26:33 36° 294° (WNW) 08:31:18 137.62
CANX-2 28 Jun 08:28:22 08:31:56 25° 94° (E) 08:35:28 2200.000
AO-7 28 Jun 08:31:11 08:34:03 12° 326° (NW) 08:36:55 29.400- 29.500
COMPASS 1 28 Jun 08:33:39 08:35:31 13° 89° (E) 08:37:23 437.405
HO-68 28 Jun 08:35:54 08:42:25 35° 96° (E) 08:48:53 435.675
GOMX 1 28 Jun 08:36:04 08:39:58 39° 290° (WNW) 08:43:58 467.674
PHONESAT 2.4 28 Jun 08:42:44 08:45:15 23° 168° (SSE) 08:47:46 2401.200-2431.200
NOAA 18 28 Jun 08:46:54 08:51:44 32° 297° (WNW) 08:56:34 137.9125
CUTE 1.7 + AOD 2 28 Jun 08:48:13 08:52:10 34° 96° (E) 08:56:05 437.475
SEEDS 28 Jun 08:53:22 08:57:05 28° 95° (E) 09:00:44 437.485
Cubesat XI-IV 28 Jun 08:57:12 09:01:38 27° 298° (WNW) 09:06:04 437.490
STRAND 1 28 Jun 09:00:08 09:03:22 17° 270° (W) 09:06:38 437.568
CINEMA 3 28 Jun 09:00:38 09:05:04 55° 100° (E) 09:09:41 145.822/145.860
CUBEBUG 2 28 Jun 09:02:10 09:05:33 20° 92° (E) 09:08:59 437.445
CUSAT 1 28 Jun 09:02:54 09:10:16 48° 286° (WNW) 09:16:28 437.405
ANTELSAT 28 Jun 09:16:44 09:19:03 14° 59° (ENE) 09:21:24 437.575/2403.000
DANDE 28 Jun 09:18:59 09:27:24 70° 283° (WNW) 09:35:04 436.750
AUBIESAT-1 28 Jun 09:22:53 09:24:28 12° 97° (E) 09:26:04 437.475
Cosmos 2499 28 Jun 09:25:26 09:27:29 11° 292° (WNW) 09:29:30 435.465 / 435.565
ZACube-1 28 Jun 09:31:00 09:34:08 18° 91° (E) 09:37:18 437.345
PRISM 28 Jun 09:31:43 09:35:26 31° 263° (W) 09:39:11 437.425
CUTE-I 28 Jun 09:32:53 09:35:47 15° 305° (NW) 09:38:41 437.470
AAUSAT CUBESAT 2 28 Jun 09:33:47 09:37:48 43° 98° (E) 09:41:46 437.432
ISS 28 Jun 09:37:45 09:40:48 38° 143° (SE) 09:43:52 145.825
DOVE 4 28 Jun 09:39:31 09:42:44 21° 295° (WNW) 09:46:03 437.250
Oscar 11 28 Jun 09:41:41 09:45:11 23° 93° (E) 09:48:39 145.826/435.025
FUNcube-1 28 Jun 09:48:23 09:52:10 25° 94° (E) 09:55:57 145.935
UWE-3 28 Jun 09:50:01 09:54:21 40° 98° (E) 09:58:43 435.000/436.395/437.385
DELFI C3 28 Jun 09:51:23 09:53:05 12° 89° (E) 09:54:48 145.870
M-CUBED/EXP-1 PRIME 28 Jun 10:00:05 10:03:39 35° 104° (ESE) 10:07:28 437.505
CANX-2 28 Jun 10:03:58 10:07:51 34° 291° (WNW) 10:11:42 2200.000
PCSat 28 Jun 10:04:33 10:08:37 21° 37° (NE) 10:12:39 145.827
TIGRISAT 28 Jun 10:06:25 10:10:25 39° 69° (ENE) 10:14:32 435.000
COMPASS 1 28 Jun 10:07:21 10:11:31 64° 286° (WNW) 10:15:39 437.405
BEESAT 3 28 Jun 10:07:53 10:10:12 15° 34° (NE) 10:12:31 437.485
UNISAT 6 28 Jun 10:11:15 10:15:22 46° 70° (ENE) 10:19:36 437.425
PHONESAT 2.4 28 Jun 10:18:44 10:21:26 28° 185° (S) 10:24:07 2401.200-2431.200
HO-68 28 Jun 10:23:25 10:30:21 52° 295° (WNW) 10:37:15 435.675
CUTE 1.7 + AOD 2 28 Jun 10:24:22 10:27:52 25° 294° (WNW) 10:31:19 437.475
SEEDS 28 Jun 10:29:03 10:32:44 29° 292° (WNW) 10:36:22 437.485
NANOSAT C BR1 28 Jun 10:31:57 10:34:12 14° 61° (ENE) 10:36:27 145.865
Cosmos 2491 28 Jun 10:32:37 10:38:53 21° 58° (ENE) 10:45:04 435.465 / 435.565
QB50P1 28 Jun 10:34:21 10:36:53 16° 62° (ENE) 10:39:26 145.935-145.965
POPSAT HIP 1 28 Jun 10:37:23 10:40:03 17° 62° (ENE) 10:42:43 437.405
CUBEBUG 2 28 Jun 10:37:59 10:42:24 49° 288° (WNW) 10:46:55 437.445
CINEMA 3 28 Jun 10:38:45 10:41:52 19° 297° (WNW) 10:45:04 145.822/145.860
JAS-2 28 Jun 10:39:22 10:42:06 12° 50° (NE) 10:44:44 435.910
RS-15 28 Jun 10:40:09 10:47:35 20° 97° (E) 10:55:12 29.354- 29.394
BEESAT 2 28 Jun 10:44:32 10:47:21 18° 37° (NE) 10:50:08 435.950
HUMSAT D 28 Jun 10:47:49 10:51:28 26° 94° (E) 10:55:05 437.325/437.525
QB50P2 28 Jun 10:48:50 10:52:07 23° 65° (ENE) 10:55:25 145.880/145.840
ANTELSAT 28 Jun 10:50:54 10:55:12 70° 258° (WSW) 10:59:37 437.575/2403.000
POLYITAN 1 28 Jun 10:51:25 10:54:44 23° 65° (ENE) 10:58:04 437.675
DUCHIFAT 1 28 Jun 10:51:44 10:54:50 21° 64° (ENE) 10:57:58 145.980
AUBIESAT-1 28 Jun 10:55:24 10:59:15 68° 291° (WNW) 11:03:22 437.475
DANDE 28 Jun 11:06:06 11:11:25 18° 302° (WNW) 11:16:23 436.750
ZACube-1 28 Jun 11:06:18 11:10:43 52° 288° (WNW) 11:15:09 437.345
AAUSAT CUBESAT 2 28 Jun 11:10:00 11:12:59 19° 296° (WNW) 11:15:58 437.432
ISS 28 Jun 11:14:05 11:17:13 44° 341° (NNW) 11:20:24 145.825
Oscar 11 28 Jun 11:17:23 11:21:26 37° 290° (WNW) 11:25:26 145.826/435.025
FUNcube-1 28 Jun 11:24:19 11:28:29 37° 291° (WNW) 11:32:41 145.935
DELFI C3 28 Jun 11:24:23 11:28:21 60° 286° (WNW) 11:32:16 145.870
UWE-3 28 Jun 11:26:55 11:30:36 25° 294° (WNW) 11:34:21 435.000/436.395/437.385
M-CUBED/EXP-1 PRIME 28 Jun 11:35:04 11:38:04 22° 298° (WNW) 11:41:15 437.505
O/OREOS (USA 219) 28 Jun 11:35:53 11:38:47 17° 49° (NE) 11:41:40 437.305
TIGRISAT 28 Jun 11:43:57 11:47:17 22° 267° (W) 11:50:41 435.000
BEESAT 3 28 Jun 11:44:31 11:48:30 85° 53° (NE) 11:52:28 437.485
PCSat 28 Jun 11:47:18 11:52:46 90° 258° (WSW) 11:58:12 145.827
BUGSAT 1 28 Jun 11:48:41 11:52:22 36° 69° (ENE) 11:56:03 437.445
UNISAT 6 28 Jun 11:49:19 11:52:22 19° 269° (W) 11:55:28 437.425
PHONESAT 2.4 28 Jun 11:55:40 11:57:31 15° 201° (SSW) 11:59:22 2401.200-2431.200
NANOSAT C BR1 28 Jun 12:05:18 12:09:26 64° 258° (WSW) 12:13:38 145.865
ESTCUBE 1 28 Jun 12:07:35 12:11:40 33° 96° (E) 12:15:44 437.505/2401.250
QB50P1 28 Jun 12:08:07 12:12:14 57° 259° (W) 12:16:23 145.935-145.965
50 SAT 28 Jun 12:10:57 12:13:53 22° 94° (E) 12:16:47 437.505
POPSAT HIP 1 28 Jun 12:11:20 12:15:26 53° 260° (W) 12:19:34 437.405
AISAT 28 Jun 12:13:34 12:17:13 25° 95° (E) 12:20:50 437.250
HO-68 28 Jun 12:13:39 12:16:29 13° 316° (NW) 12:19:18 435.675
UKube-1 28 Jun 12:16:29 12:19:10 16° 91° (E) 12:21:49 .
YUBILEINY 28 Jun 12:18:01 12:25:17 31° 82° (E) 12:32:35 435.215
JAS-2 28 Jun 12:18:33 12:25:52 54° 69° (ENE) 12:32:31 435.910
SPROUT 28 Jun 12:19:24 12:21:13 12° 89° (E) 12:23:02 437.525
BEESAT 2 28 Jun 12:21:38 12:25:38 73° 236° (WSW) 12:29:36 435.950
HUMSAT D 28 Jun 12:23:14 12:27:06 33° 292° (WNW) 12:30:58 437.325/437.525
QB50P2 28 Jun 12:23:50 12:27:44 37° 262° (W) 12:31:40 145.880/145.840
DUCHIFAT 1 28 Jun 12:26:21 12:30:17 40° 261° (W) 12:34:16 145.980
POLYITAN 1 28 Jun 12:26:30 12:30:22 36° 263° (W) 12:34:16 437.675
Cosmos 2491 28 Jun 12:28:23 12:37:10 85° 83° (E) 12:45:53 435.465 / 435.565
DX 1 28 Jun 12:34:49 12:38:39 30° 96° (E) 12:42:28 434.975-435.025
RS-15 28 Jun 12:46:25 12:57:47 76° 120° (ESE) 13:09:51 29.354- 29.394
ISS 28 Jun 12:51:15 12:54:10 29° 2° (N) 12:57:05 145.825
Oscar 19 28 Jun 12:56:13 13:00:53 36° 66° (ENE) 13:05:34 437.125/150
AIST 2 28 Jun 13:00:52 13:04:18 24° 40° (NE) 13:07:42 435.215
CUBEBUG 1 28 Jun 13:01:28 13:05:49 82° 105° (ESE) 13:10:08 437.445
VELOX 1 28 Jun 13:08:36 13:13:02 86° 101° (ESE) 13:17:26 145.980
Gurwin Techsat 1B 28 Jun 13:11:10 13:15:21 24° 62° (ENE) 13:19:33 435.225
O/OREOS (USA 219) 28 Jun 13:14:13 13:18:42 71° 249° (WSW) 13:23:10 437.305
ITAMSAT 1 28 Jun 13:21:20 13:23:17 12° 53° (NE) 13:25:13 435.822/435.867
BUGSAT 1 28 Jun 13:24:51 13:27:52 20° 267° (W) 13:30:54 437.445
BEESAT 3 28 Jun 13:24:58 13:25:33 10° 251° (WSW) 13:26:08 437.485
PCSat 28 Jun 13:32:36 13:35:22 14° 257° (WSW) 13:38:08 145.827
Cosmos 2504 28 Jun 13:38:08 13:45:01 31° 81° (E) 13:52:15 435.465 / 435.565
TISAT 1 28 Jun 13:39:41 13:43:02 23° 94° (E) 13:46:24 437.305
50 SAT 28 Jun 13:44:22 13:47:35 28° 292° (WNW) 13:50:46 437.505
ESTCUBE 1 28 Jun 13:44:33 13:48:23 28° 294° (WNW) 13:52:12 437.505/2401.250
AISAT 28 Jun 13:49:46 13:53:46 35° 292° (WNW) 13:57:46 437.250
UKube-1 28 Jun 13:51:19 13:55:33 54° 288° (WNW) 13:59:44 .
SPROUT 28 Jun 13:53:22 13:57:38 69° 286° (WNW) 14:01:53 437.525
AO-7 28 Jun 13:54:32 14:00:46 24° 48° (NE) 14:06:59 29.400- 29.500
JAS-2 28 Jun 14:04:13 14:11:02 35° 265° (W) 14:17:21 435.910
DX 1 28 Jun 14:11:03 14:14:48 29° 294° (WNW) 14:18:31 434.975-435.025
YUBILEINY 28 Jun 14:12:50 14:21:28 64° 283° (WNW) 14:30:12 435.215
BEESAT 28 Jun 14:23:44 14:26:20 14° 89° (E) 14:28:54 436.000
ITUPSAT 1 28 Jun 14:24:35 14:27:11 14° 89° (E) 14:29:46 437.325
Cosmos 2491 28 Jun 14:26:43 14:32:51 22° 283° (WNW) 14:39:01 435.465 / 435.565
ISS 28 Jun 14:27:49 14:31:03 54° 21° (NNE) 14:34:16 145.825
Oscar 19 28 Jun 14:35:38 14:40:13 32° 264° (W) 14:44:50 437.125/150
AIST 2 28 Jun 14:38:59 14:43:01 49° 239° (WSW) 14:47:01 435.215
CUBEBUG 1 28 Jun 14:39:44 14:41:29 12° 301° (WNW) 14:43:14 437.445
VELOX 1 28 Jun 14:47:09 14:48:50 12° 302° (WNW) 14:50:31 145.980
Gurwin Techsat 1B 28 Jun 14:49:46 14:54:57 54° 260° (W) 15:00:11 435.225
ITAMSAT 1 28 Jun 14:56:38 15:01:50 72° 72° (ENE) 15:07:04 435.822/435.867
RS-15 28 Jun 15:00:17 15:11:21 45° 328° (NNW) 15:22:59 29.354- 29.394
TISAT 1 28 Jun 15:14:56 15:18:47 35° 291° (WNW) 15:22:38 437.305
SO-50 28 Jun 15:20:45 15:23:21 14° 109° (ESE) 15:25:57 436.795
Cosmos 2504 28 Jun 15:29:39 15:37:44 64° 283° (WNW) 15:46:27 435.465 / 435.565
SWISSCUBE 28 Jun 15:34:28 15:39:18 74° 103° (ESE) 15:44:04 437.505
HORYU 2 28 Jun 15:43:19 15:45:35 14° 59° (ENE) 15:47:50 437.375
AO-7 28 Jun 15:44:06 15:52:26 85° 69° (ENE) 16:00:52 29.400- 29.500
BEESAT 28 Jun 15:59:49 16:04:38 72° 287° (WNW) 16:09:23 436.000
ITUPSAT 1 28 Jun 16:00:44 16:05:33 72° 286° (WNW) 16:10:19 437.325
ISS 28 Jun 16:04:30 16:07:21 28° 220° (SW) 16:10:12 145.825
YUBILEINY 28 Jun 16:15:38 16:20:22 15° 308° (NW) 16:25:09 435.215
NOAA 15 28 Jun 16:29:02 16:30:46 12° 53° (NE) 16:32:29 137.62
ITAMSAT 1 28 Jun 16:38:37 16:41:50 16° 270° (W) 16:45:05 435.822/435.867
MOZHAYETS 4 28 Jun 16:40:35 16:44:57 39° 97° (E) 16:49:16
KKS-1 28 Jun 16:51:28 16:55:49 52° 100° (E) 17:00:10 437.445
NOAA 18 28 Jun 16:56:51 17:00:19 17° 56° (NE) 17:03:49 137.9125
SO-50 28 Jun 16:58:17 17:03:12 86° 306° (NW) 17:08:05 436.795
AIST 1 28 Jun 17:01:06 17:04:47 28° 90° (E) 17:08:28
Cubesat XI-IV 28 Jun 17:03:44 17:07:03 17° 57° (ENE) 17:10:22 437.490
SWISSCUBE 28 Jun 17:13:38 17:16:31 16° 301° (WNW) 17:19:22 437.505
HORYU 2 28 Jun 17:17:07 17:21:32 76° 257° (WSW) 17:26:02 437.375
RS-15 28 Jun 17:17:32 17:27:53 31° 1° (N) 17:38:30 29.354- 29.394
STARS 28 Jun 17:24:00 17:28:22 59° 102° (ESE) 17:32:42 437.465
Cosmos 2504 28 Jun 17:28:33 17:33:15 16° 308° (NW) 17:38:06 435.465 / 435.565
BRITE-PL 28 Jun 17:34:24 17:38:48 32° 69° (ENE) 17:42:54 437.365/2234.400
CUTE-I 28 Jun 17:36:31 17:41:06 30° 64° (ENE) 17:45:44 437.470
AO-7 28 Jun 17:39:57 17:46:11 23° 269° (W) 17:52:28 29.400- 29.500
BEESAT 28 Jun 17:40:31 17:41:33 11° 305° (NW) 17:42:34 436.000
ITUPSAT 1 28 Jun 17:41:24 17:42:31 11° 305° (NW) 17:43:37 437.325
CUSAT 1 28 Jun 17:56:07 17:58:23 15° 60° (ENE) 18:00:21 437.405
NOAA 15 28 Jun 18:04:19 18:09:35 68° 72° (ENE) 18:14:51 137.62
CUBESAT XI-V 28 Jun 18:07:50 18:12:10 38° 97° (E) 18:16:26 437.345
GOMX 1 28 Jun 18:08:58 18:12:56 30° 68° (ENE) 18:16:43 467.674
GONETS M04 28 Jun 18:14:52 18:22:43 40° 85° (E) 18:30:32
Cosmos 2499 28 Jun 18:15:04 18:21:45 27° 79° (E) 18:28:41 435.465 / 435.565
DANDE 28 Jun 18:17:21 18:20:26 15° 55° (NE) 18:23:06 436.750
MOZHAYETS 4 28 Jun 18:18:06 18:21:56 26° 295° (WNW) 18:25:43
KKS-1 28 Jun 18:28:56 18:32:02 19° 298° (WNW) 18:35:08 437.445
LilacSat-2 28 Jun 18:32:15 18:36:02 79° 75° (ENE) 18:39:51 437.200
NOAA 18 28 Jun 18:34:49 18:40:18 83° 255° (WSW) 18:45:50 137.9125
AIST 1 28 Jun 18:38:36 18:42:20 28° 287° (WNW) 18:46:04
SO-50 28 Jun 18:40:49 18:44:23 20° 327° (NNW) 18:47:55 436.795
Cubesat XI-IV 28 Jun 18:41:05 18:46:26 83° 255° (WSW) 18:51:52 437.490
STARS 28 Jun 19:01:28 19:04:17 17° 299° (WNW) 19:07:06 437.465
HO-68 28 Jun 19:07:20 19:13:39 35° 60° (ENE) 19:19:59 435.675
DOVE 4 28 Jun 19:09:11 19:13:23 56° 73° (ENE) 19:17:29 437.250
BRITE-PL 28 Jun 19:12:48 19:17:16 32° 264° (W) 19:21:28 437.365/2234.400
CUTE-I 28 Jun 19:15:56 19:21:00 42° 262° (W) 19:26:06 437.470
CANX-2 28 Jun 19:23:31 19:27:02 25° 66° (ENE) 19:30:34 2200.000
COMPASS 1 28 Jun 19:27:09 19:29:11 13° 60° (ENE) 19:31:13 437.405
STRAND 1 28 Jun 19:27:30 19:31:11 19° 91° (E) 19:34:49 437.568
RS-15 28 Jun 19:32:33 19:44:19 48° 34° (NE) 19:56:07 29.354- 29.394
CUSAT 1 28 Jun 19:37:23 19:40:48 31° 269° (W) 19:43:34 437.405
CUTE 1.7 + AOD 2 28 Jun 19:43:06 19:46:58 34° 69° (ENE) 19:50:52 437.475
CUBESAT XI-V 28 Jun 19:45:33 19:49:23 26° 295° (WNW) 19:53:10 437.345
NOAA 15 28 Jun 19:46:21 19:49:51 18° 270° (W) 19:53:21 137.62
GOMX 1 28 Jun 19:47:03 19:51:01 29° 264° (W) 19:54:50 467.674
SEEDS 28 Jun 19:47:23 19:51:01 28° 67° (ENE) 19:54:40 437.485
DANDE 28 Jun 19:59:02 20:04:14 62° 264° (W) 20:08:03 436.750
CUBEBUG 2 28 Jun 20:03:09 20:06:16 21° 64° (ENE) 20:09:26 437.445
CINEMA 3 28 Jun 20:04:55 20:09:01 63° 74° (ENE) 20:13:10 145.822/145.860
Cosmos 2499 28 Jun 20:05:37 20:13:59 74° 281° (W) 20:22:53 435.465 / 435.565
GONETS M04 28 Jun 20:10:55 20:19:19 51° 287° (WNW) 20:27:46
AUBIESAT-1 28 Jun 20:11:11 20:13:34 19° 60° (ENE) 20:15:59 437.475
NOAA 18 28 Jun 20:19:45 20:21:48 12° 273° (W) 20:23:51 137.9125
Cubesat XI-IV 28 Jun 20:25:33 20:27:21 12° 274° (W) 20:29:09 437.490
AAUSAT CUBESAT 2 28 Jun 20:26:09 20:30:04 40° 70° (ENE) 20:34:01 437.432
ZACube-1 28 Jun 20:29:35 20:32:33 19° 63° (ENE) 20:35:33 437.345
Oscar 11 28 Jun 20:38:49 20:42:21 25° 66° (ENE) 20:45:55 145.826/435.025
DELFI C3 28 Jun 20:40:27 20:41:54 12° 60° (ENE) 20:43:22 145.870
FUNcube-1 28 Jun 20:46:31 20:49:59 25° 66° (ENE) 20:53:32 145.935
DOVE 4 28 Jun 20:49:07 20:51:27 14° 269° (W) 20:53:46 437.250
UWE-3 28 Jun 20:49:29 20:53:25 41° 70° (ENE) 20:57:29 435.000/436.395/437.385
M-CUBED/EXP-1 PRIME 28 Jun 20:49:34 20:52:49 67° 69° (ENE) 20:56:06 437.505
AO-85 28 Jun 20:51:20 20:54:18 15° 108° (ESE) 20:57:13 145.980
HO-68 28 Jun 20:54:08 21:01:06 54° 259° (W) 21:08:09 435.675
CANX-2 28 Jun 20:58:50 21:02:45 34° 264° (W) 21:06:42 2200.000
COMPASS 1 28 Jun 20:59:58 21:04:11 71° 258° (WSW) 21:08:25 437.405
STRAND 1 28 Jun 21:05:40 21:10:45 60° 289° (WNW) 21:15:48 437.568
PRISM 28 Jun 21:10:36 21:14:08 27° 96° (E) 21:17:37 437.425
CUTE 1.7 + AOD 2 28 Jun 21:19:21 21:22:52 25° 266° (W) 21:26:25 437.475
SEEDS 28 Jun 21:22:55 21:26:39 30° 265° (W) 21:30:26 437.485
CUBEBUG 2 28 Jun 21:38:41 21:42:38 41° 262° (W) 21:46:41 437.445
HUMSAT D 28 Jun 21:41:33 21:44:59 25° 66° (ENE) 21:48:28 437.325/437.525
CINEMA 3 28 Jun 21:44:57 21:46:39 12° 272° (W) 21:48:21 145.822/145.860
AUBIESAT-1 28 Jun 21:45:03 21:47:57 28° 258° (WSW) 21:50:53 437.475
RS-15 28 Jun 21:45:32 21:57:46 73° 241° (WSW) 22:09:55 29.354- 29.394
AAUSAT CUBESAT 2 28 Jun 22:02:35 22:05:43 20° 268° (W) 22:08:52 437.432
Cosmos 2499 28 Jun 22:03:16 22:08:55 19° 305° (NW) 22:14:43 435.465 / 435.565
ZACube-1 28 Jun 22:04:25 22:08:29 47° 261° (W) 22:12:41 437.345
SO-50 28 Jun 22:09:10 22:09:40 10° 17° (NNE) 22:10:11 436.795
DELFI C3 28 Jun 22:12:09 22:16:11 76° 257° (WSW) 22:20:15 145.870
Oscar 11 28 Jun 22:14:20 22:18:19 35° 263° (W) 22:22:21 145.826/435.025
GONETS M04 28 Jun 22:16:01 22:18:44 12° 313° (NW) 22:21:29
FUNcube-1 28 Jun 22:22:18 22:26:06 33° 264° (W) 22:30:02 145.935
YUBILEINY 28 Jun 22:24:17 22:30:01 18° 55° (NE) 22:35:43 435.215
CUBEBUG 1 28 Jun 22:26:51 22:28:14 11° 58° (ENE) 22:29:36 437.445
UWE-3 28 Jun 22:27:01 22:30:06 20° 269° (W) 22:33:15 435.000/436.395/437.385
AO-85 28 Jun 22:28:43 22:34:10 88° 122° (ESE) 22:39:23 145.980
VELOX 1 28 Jun 22:34:32 22:36:34 13° 59° (ENE) 22:38:36 145.980
ANTELSAT 28 Jun 22:40:25 22:44:01 22° 93° (E) 22:47:36 437.575/2403.000
PRISM 28 Jun 22:45:54 22:49:25 28° 293° (WNW) 22:52:54 437.425
50 SAT 28 Jun 22:51:48 22:54:09 16° 64° (ENE) 22:56:31 437.505
ESTCUBE 1 28 Jun 23:09:13 23:13:29 41° 69° (ENE) 23:17:46 437.505/2401.250
AISAT 28 Jun 23:13:12 23:17:03 31° 67° (ENE) 23:20:55 437.250
UKube-1 28 Jun 23:13:20 23:16:27 20° 63° (ENE) 23:19:35 .
SPROUT 28 Jun 23:15:31 23:17:48 14° 60° (ENE) 23:20:04 437.525
HUMSAT D 28 Jun 23:16:41 23:20:28 33° 264° (W) 23:24:19 437.325/437.525
Cosmos 2504 28 Jun 23:27:33 23:32:18 15° 51° (NE) 23:36:58 435.465 / 435.565
TIGRISAT 28 Jun 23:31:17 23:35:54 64° 101° (E) 23:40:33 435.000
DX 1 28 Jun 23:32:31 23:36:29 36° 68° (ENE) 23:40:28 434.975-435.025
UNISAT 6 28 Jun 23:36:28 23:41:07 76° 102° (ESE) 23:45:49 437.425
Cosmos 2491 28 Jun 23:39:18 23:45:10 20° 76° (ENE) 23:51:01 435.465 / 435.565
SO-50 28 Jun 23:47:37 23:51:45 29° 40° (NE) 23:55:46 436.795
NANOSAT C BR1 28 Jun 23:48:06 23:50:54 17° 91° (E) 23:53:41 145.865
QB50P1 28 Jun 23:51:00 23:54:04 19° 92° (E) 23:57:08 145.935-145.965
POPSAT HIP 1 28 Jun 23:54:08 23:57:20 20° 93° (E) 00:00:31 437.405
CUBEBUG 1 28 Jun 23:59:29 00:03:51 90° 248° (WSW) 00:08:13 437.445
RS-15 29 Jun 00:00:18 00:07:59 20° 264° (W) 00:15:40 29.354- 29.394
QB50P2 29 Jun 00:06:07 00:09:51 28° 95° (E) 00:13:33 145.880/145.840
DUCHIFAT 1 29 Jun 00:08:02 00:11:34 25° 95° (E) 00:15:06 145.980
POLYITAN 1 29 Jun 00:08:43 00:12:29 29° 96° (E) 00:16:14 437.675
